Hourly Weather Barmer

Today, 30 September, Wednesday

Time Temperature Precipitation Wind Pressure Humidity
00:00 +33°C° 0 mm 5 mps 736 mmHg 49%
01:00 +33°C° 0 mm 5 mps 735 mmHg 50%
02:00 +32°C° 0 mm 5 mps 735 mmHg 52%
03:00 +30°C° 0 mm 4 mps 735 mmHg 55%
04:00 +30°C° 0 mm 4 mps 735 mmHg 59%
05:00 +29°C° 0 mm 4 mps 735 mmHg 63%
06:00 +30°C° 0 mm 4 mps 736 mmHg 61%
07:00 +30°C° 0 mm 4 mps 736 mmHg 59%
08:00 +32°C° 0 mm 4 mps 737 mmHg 57%
09:00 +33°C° 0 mm 3 mps 737 mmHg 50%
10:00 +35°C° 0 mm 2 mps 737 mmHg 42%
11:00 +36°C° 0 mm 2 mps 737 mmHg 36%
12:00 +37°C° 0 mm 2 mps 736 mmHg 32%
13:00 +37°C° 0 mm 1 mps 736 mmHg 28%
14:00 +39°C° 0 mm 1 mps 735 mmHg 24%
15:00 +39°C° 0 mm 1 mps 735 mmHg 23%
16:00 +39°C° 0 mm 1 mps 734 mmHg 22%
17:00 +39°C° 0 mm 1 mps 734 mmHg 21%
18:00 +39°C° 0 mm 2 mps 735 mmHg 23%
19:00 +38°C° 0 mm 3 mps 735 mmHg 24%
20:00 +38°C° 0 mm 4 mps 736 mmHg 26%
21:00 +37°C° 0 mm 4 mps 736 mmHg 31%
22:00 +36°C° 0 mm 5 mps 736 mmHg 35%
23:00 +34°C° 0 mm 6 mps 736 mmHg 40%

Tomorrow, 1 October, Thursday

Time Temperature Precipitation Wind Pressure Humidity
00:00 +34°C° 0 mm 6 mps 736 mmHg 42%
01:00 +33°C° 0 mm 5 mps 735 mmHg 44%
02:00 +33°C° 0 mm 5 mps 735 mmHg 46%
03:00 +32°C° 0 mm 5 mps 735 mmHg 51%
04:00 +30°C° 0 mm 5 mps 735 mmHg 55%
05:00 +30°C° 0 mm 5 mps 735 mmHg 60%
06:00 +30°C° 0 mm 5 mps 736 mmHg 58%
07:00 +32°C° 0 mm 5 mps 736 mmHg 56%
08:00 +32°C° 0 mm 6 mps 737 mmHg 54%
09:00 +34°C° 0 mm 5 mps 737 mmHg 45%
10:00 +36°C° 0 mm 5 mps 737 mmHg 37%
11:00 +39°C° 0 mm 5 mps 737 mmHg 28%
12:00 +40°C° 0 mm 4 mps 736 mmHg 26%
13:00 +41°C° 0 mm 4 mps 735 mmHg 23%
14:00 +40°C° 0 mm 3 mps 735 mmHg 20%
15:00 +40°C° 0 mm 3 mps 734 mmHg 20%
16:00 +40°C° 0 mm 3 mps 734 mmHg 19%
17:00 +42°C° 0 mm 3 mps 734 mmHg 18%
18:00 +40°C° 0 mm 4 mps 734 mmHg 21%
19:00 +38°C° 0 mm 4 mps 735 mmHg 25%
20:00 +37°C° 0 mm 5 mps 735 mmHg 28%
21:00 +36°C° 0 mm 5 mps 735 mmHg 32%
22:00 +35°C° 0 mm 6 mps 735 mmHg 36%
23:00 +34°C° 0 mm 7 mps 735 mmHg 40%

Day after tomorrow, 2 October, Friday

Time Temperature Precipitation Wind Pressure Humidity
00:00 +34°C° 0 mm 7 mps 735 mmHg 42%
01:00 +33°C° 0 mm 6 mps 735 mmHg 45%
02:00 +32°C° 0 mm 6 mps 735 mmHg 48%
03:00 +32°C° 0 mm 5 mps 735 mmHg 49%
04:00 +32°C° 0 mm 5 mps 735 mmHg 51%
05:00 +30°C° 0 mm 5 mps 735 mmHg 53%
06:00 +32°C° 0 mm 5 mps 735 mmHg 48%
07:00 +33°C° 0 mm 6 mps 736 mmHg 43%
08:00 +34°C° 0 mm 6 mps 736 mmHg 38%
09:00 +36°C° 0 mm 6 mps 736 mmHg 33%
10:00 +39°C° 0 mm 7 mps 736 mmHg 28%
11:00 +40°C° 0 mm 7 mps 736 mmHg 23%
12:00 +41°C° 0 mm 7 mps 736 mmHg 20%
13:00 +43°C° 0 mm 7 mps 735 mmHg 18%
14:00 +44°C° 0 mm 7 mps 735 mmHg 16%
15:00 +43°C° 0 mm 7 mps 734 mmHg 15%
16:00 +42°C° 0 mm 6 mps 734 mmHg 15%
17:00 +42°C° 0 mm 6 mps 734 mmHg 15%
18:00 +41°C° 0 mm 6 mps 734 mmHg 18%
19:00 +39°C° 0 mm 6 mps 735 mmHg 21%
20:00 +38°C° 0 mm 6 mps 735 mmHg 24%
21:00 +36°C° 0 mm 6 mps 735 mmHg 27%
22:00 +35°C° 0 mm 6 mps 735 mmHg 30%
23:00 +35°C° 0 mm 6 mps 735 mmHg 33%

3 October, Saturday

Time Temperature Precipitation Wind Pressure Humidity
00:00 +34°C° 0 mm 6 mps 735 mmHg 37%
01:00 +33°C° 0 mm 6 mps 735 mmHg 41%
02:00 +32°C° 0 mm 5 mps 735 mmHg 45%
03:00 +32°C° 0 mm 5 mps 735 mmHg 48%
04:00 +30°C° 0 mm 5 mps 735 mmHg 50%
05:00 +29°C° 0 mm 5 mps 735 mmHg 53%
06:00 +30°C° 0 mm 5 mps 735 mmHg 50%
07:00 +30°C° 0 mm 5 mps 736 mmHg 47%
08:00 +32°C° 0 mm 5 mps 736 mmHg 44%
09:00 +34°C° 0 mm 5 mps 737 mmHg 36%
10:00 +36°C° 0 mm 6 mps 737 mmHg 29%
11:00 +39°C° 0 mm 6 mps 737 mmHg 22%
12:00 +40°C° 0 mm 6 mps 736 mmHg 20%
13:00 +41°C° 0 mm 6 mps 736 mmHg 18%
14:00 +42°C° 0 mm 5 mps 735 mmHg 16%
15:00 +41°C° 0 mm 5 mps 735 mmHg 16%
16:00 +41°C° 0 mm 5 mps 735 mmHg 16%
17:00 +41°C° 0 mm 4 mps 735 mmHg 16%
18:00 +40°C° 0 mm 5 mps 735 mmHg 20%
19:00 +37°C° 0 mm 5 mps 735 mmHg 24%
20:00 +36°C° 0 mm 6 mps 736 mmHg 28%
21:00 +35°C° 0 mm 6 mps 736 mmHg 31%
22:00 +34°C° 0 mm 5 mps 736 mmHg 34%
23:00 +34°C° 0 mm 5 mps 736 mmHg 37%

4 October, Sunday

Time Temperature Precipitation Wind Pressure Humidity
00:00 +33°C° 0 mm 5 mps 736 mmHg 43%
01:00 +32°C° 0 mm 5 mps 736 mmHg 50%
02:00 +30°C° 0 mm 5 mps 736 mmHg 56%
03:00 +29°C° 0 mm 5 mps 736 mmHg 58%
04:00 +29°C° 0 mm 4 mps 736 mmHg 60%
05:00 +28°C° 0 mm 4 mps 736 mmHg 61%
06:00 +29°C° 0 mm 5 mps 737 mmHg 60%
07:00 +29°C° 0 mm 5 mps 737 mmHg 59%
08:00 +29°C° 0 mm 5 mps 738 mmHg 58%
09:00 +32°C° 0 mm 5 mps 738 mmHg 50%
10:00 +34°C° 0 mm 5 mps 738 mmHg 42%
11:00 +36°C° 0 mm 5 mps 738 mmHg 33%
12:00 +37°C° 0 mm 5 mps 737 mmHg 30%
13:00 +38°C° 0 mm 4 mps 737 mmHg 27%
14:00 +40°C° 0 mm 4 mps 736 mmHg 23%
15:00 +40°C° 0 mm 4 mps 736 mmHg 22%
16:00 +40°C° 0 mm 4 mps 735 mmHg 21%
17:00 +40°C° 0 mm 4 mps 735 mmHg 19%
18:00 +37°C° 0 mm 4 mps 735 mmHg 24%
19:00 +36°C° 0 mm 5 mps 736 mmHg 28%
20:00 +35°C° 0 mm 6 mps 736 mmHg 32%
21:00 +34°C° 0 mm 6 mps 736 mmHg 34%
22:00 +33°C° 0 mm 6 mps 736 mmHg 37%
23:00 +33°C° 0 mm 5 mps 737 mmHg 39%

5 October, Monday

Time Temperature Precipitation Wind Pressure Humidity
00:00 +32°C° 0 mm 5 mps 736 mmHg 46%
01:00 +30°C° 0 mm 5 mps 736 mmHg 52%
02:00 +29°C° 0 mm 5 mps 736 mmHg 59%
03:00 +29°C° 0 mm 5 mps 736 mmHg 64%
04:00 +28°C° 0 mm 5 mps 736 mmHg 68%
05:00 +28°C° 0 mm 4 mps 736 mmHg 73%
06:00 +28°C° 0 mm 5 mps 736 mmHg 71%
07:00 +28°C° 0 mm 5 mps 737 mmHg 69%
08:00 +28°C° 0 mm 5 mps 737 mmHg 66%
09:00 +30°C° 0 mm 5 mps 737 mmHg 55%
10:00 +33°C° 0 mm 5 mps 737 mmHg 43%
11:00 +35°C° 0 mm 5 mps 737 mmHg 32%
12:00 +36°C° 0 mm 5 mps 737 mmHg 29%
13:00 +37°C° 0 mm 5 mps 736 mmHg 26%
14:00 +39°C° 0 mm 5 mps 736 mmHg 23%
15:00 +38°C° 0 mm 4 mps 735 mmHg 22%
16:00 +38°C° 0 mm 4 mps 735 mmHg 22%
17:00 +37°C° 0 mm 4 mps 735 mmHg 21%
18:00 +36°C° 0 mm 5 mps 735 mmHg 27%
19:00 +35°C° 0 mm 6 mps 736 mmHg 34%
20:00 +33°C° 0 mm 7 mps 736 mmHg 40%
21:00 +33°C° 0 mm 6 mps 736 mmHg 41%
22:00 +32°C° 0 mm 5 mps 736 mmHg 43%
23:00 +32°C° 0 mm 4 mps 737 mmHg 44%
Show more